| time (UTC) | temp F | wind direction | speed knots | gust knots | rain 1hr in | rain 24hr in | rain mn in | humidity % | barometer mb |
| 20260902192026 | 79 | 89 | 0.9 | 2.6 | 0.00 | 0.00 | 0.00 | 86 | 1018.4 |
| 20260902191022 | 79 | 56 | 0.9 | 2.6 | 0.00 | 0.00 | 0.00 | 85 | 1018.3 |
| 20260902190017 | 79 | 68 | 0.9 | 3.5 | 0.00 | 0.00 | 0.00 | 85 | 1017.9 |
| 20260902185033 | 79 | 81 | 1.7 | 5.2 | 0.00 | 0.00 | 0.00 | 85 | 1018.1 |
| 20260902184028 | 79 | 85 | 2.6 | 5.2 | 0.00 | 0.00 | 0.00 | 85 | 1018.0 |
| 20260902183023 | 80 | 94 | 3.5 | 6.1 | 0.00 | 0.00 | 0.00 | 85 | 1017.9 |
| 20260902182018 | 80 | 82 | 1.7 | 6.1 | 0.00 | 0.00 | 0.00 | 84 | 1018.0 |
| 20260902181033 | 80 | 88 | 2.6 | 6.1 | 0.00 | 0.00 | 0.00 | 83 | 1018.1 |
| 20260902180029 | 80 | 97 | 3.5 | 7.8 | 0.00 | 0.00 | 0.00 | 82 | 1018.0 |
| 20260902175044 | 80 | 89 | 3.5 | 8.7 | 0.00 | 0.00 | 0.00 | 80 | 1018.0 |
| 20260902174019 | 81 | 94 | 3.5 | 8.7 | 0.00 | 0.00 | 0.00 | 78 | 1018.1 |
| 20260902173054 | 81 | 116 | 3.5 | 7.8 | 0.00 | 0.00 | 0.00 | 78 | 1017.8 |
| 20260902172029 | 82 | 99 | 3.5 | 8.7 | 0.00 | 0.00 | 0.00 | 78 | 1018.0 |
| 20260902171024 | 82 | 108 | 4.3 | 8.7 | 0.00 | 0.00 | 0.00 | 77 | 1017.8 |
| 20260902170040 | 82 | 118 | 4.3 | 8.7 | 0.00 | 0.00 | 0.00 | 77 | 1017.9 |
| 20260902165035 | 82 | 113 | 4.3 | 8.7 | 0.00 | 0.00 | 0.00 | 76 | 1017.8 |
| 20260902164030 | 82 | 103 | 5.2 | 8.7 | 0.00 | 0.00 | 0.00 | 76 | 1017.9 |
| 20260902163026 | 82 | 91 | 3.5 | 8.7 | 0.00 | 0.00 | 0.00 | 76 | 1017.8 |
| 20260902162021 | 83 | 92 | 5.2 | 8.7 | 0.00 | 0.00 | 0.00 | 74 | 1017.8 |
| 20260902161018 | 82 | 109 | 5.2 | 8.7 | 0.00 | 0.00 | 0.00 | 76 | 1017.8 |
| 20260902160032 | 82 | 99 | 5.2 | 7.8 | 0.00 | 0.00 | 0.00 | 76 | 1017.8 |
| 20260902155027 | 82 | 100 | 4.3 | 9.6 | 0.00 | 0.00 | 0.00 | 76 | 1017.8 |
| 20260902154022 | 82 | 127 | 7.0 | 12.2 | 0.00 | 0.00 | 0.00 | 76 | 1017.9 |
| 20260902153018 | 82 | 118 | 5.2 | 11.3 | 0.00 | 0.00 | 0.00 | 76 | 1017.9 |
| 20260902152033 | 82 | 111 | 5.2 | 9.6 | 0.00 | 0.00 | 0.00 | 76 | 1018.0 |
| 20260902151028 | 82 | 99 | 6.1 | 11.3 | 0.00 | 0.00 | 0.00 | 76 | 1018.0 |
| 20260902150024 | 82 | 95 | 5.2 | 13.0 | 0.00 | 0.00 | 0.00 | 76 | 1018.0 |
| 20260902145019 | 82 | 108 | 6.1 | 13.9 | 0.00 | 0.00 | 0.00 | 75 | 1018.1 |
| 20260902144034 | 83 | 103 | 7.0 | 13.0 | 0.00 | 0.00 | 0.00 | 75 | 1018.3 |
| 20260902143030 | 83 | 123 | 6.1 | 13.0 | 0.00 | 0.00 | 0.00 | 74 | 1018.4 |
| 20260902142025 | 83 | 118 | 6.1 | 13.0 | 0.00 | 0.00 | 0.00 | 73 | 1018.3 |
| 20260902141020 | 82 | 118 | 7.0 | 13.9 | 0.00 | 0.00 | 0.00 | 74 | 1018.4 |
| 20260902140016 | 83 | 105 | 6.1 | 11.3 | 0.00 | 0.00 | 0.00 | 73 | 1018.6 |
| 20260902135032 | 82 | 122 | 7.0 | 12.2 | 0.00 | 0.00 | 0.00 | 75 | 1018.5 |
| 20260902134027 | 82 | 126 | 7.8 | 13.0 | 0.00 | 0.00 | 0.00 | 75 | 1018.5 |
| 20260902133023 | 83 | 96 | 6.1 | 12.2 | 0.00 | 0.00 | 0.00 | 75 | 1018.5 |
| 20260902132018 | 83 | 114 | 6.1 | 14.8 | 0.00 | 0.00 | 0.00 | 75 | 1018.5 |
| 20260902131033 | 82 | 118 | 7.0 | 13.0 | 0.00 | 0.00 | 0.00 | 75 | 1018.6 |
| 20260902130028 | 83 | 111 | 4.3 | 8.7 | 0.00 | 0.00 | 0.00 | 73 | 1018.8 |
| 20260902125044 | 83 | 119 | 6.1 | 12.2 | 0.00 | 0.00 | 0.00 | 73 | 1018.8 |
| 20260902124018 | 83 | 126 | 6.1 | 12.2 | 0.00 | 0.00 | 0.00 | 73 | 1018.7 |
| 20260902123033 | 83 | 120 | 7.0 | 11.3 | 0.00 | 0.00 | 0.00 | 72 | 1018.8 |
| 20260902122028 | 83 | 105 | 5.2 | 11.3 | 0.00 | 0.00 | 0.00 | 72 | 1019.0 |
| 20260902121044 | 84 | 110 | 5.2 | 8.7 | 0.00 | 0.00 | 0.00 | 69 | 1018.9 |
| 20260902120019 | 83 | 110 | 3.5 | 9.6 | 0.00 | 0.00 | 0.00 | 70 | 1018.9 |
| 20260902115034 | 83 | 113 | 1.7 | 7.0 | 0.00 | 0.00 | 0.00 | 70 | 1019.0 |
| 20260902114050 | 83 | 127 | 4.3 | 11.3 | 0.00 | 0.00 | 0.00 | 71 | 1019.2 |
| 20260902113025 | 83 | 156 | 4.3 | 8.7 | 0.00 | 0.00 | 0.00 | 72 | 1019.2 |
| 20260902112020 | 83 | 112 | 2.6 | 9.6 | 0.00 | 0.00 | 0.00 | 71 | 1019.3 |
| 20260902111016 | 83 | 137 | 5.2 | 9.6 | 0.00 | 0.00 | 0.00 | 72 | 1019.2 |
| 20260902110031 | 82 | 95 | 3.5 | 7.0 | 0.00 | 0.00 | 0.00 | 73 | 1019.4 |
| 20260902105027 | 82 | 98 | 4.3 | 7.8 | 0.00 | 0.00 | 0.00 | 73 | 1019.3 |
| 20260902104022 | 81 | 109 | 4.3 | 7.8 | 0.00 | 0.00 | 0.00 | 75 | 1019.3 |
| 20260902103037 | 81 | 101 | 2.6 | 8.7 | 0.00 | 0.00 | 0.00 | 75 | 1019.5 |
| 20260902102032 | 81 | 114 | 2.6 | 7.0 | 0.00 | 0.00 | 0.00 | 75 | 1019.5 |
| 20260902101027 | 82 | 114 | 4.3 | 9.6 | 0.00 | 0.00 | 0.00 | 74 | 1019.5 |
| 20260902100043 | 81 | 105 | 6.1 | 11.3 | 0.00 | 0.00 | 0.00 | 75 | 1019.5 |
| 20260902095018 | 81 | 113 | 5.2 | 8.7 | 0.00 | 0.00 | 0.00 | 74 | 1019.4 |
| 20260902094033 | 81 | 121 | 4.3 | 8.7 | 0.00 | 0.00 | 0.00 | 73 | 1019.4 |
| 20260902093028 | 81 | 113 | 4.3 | 11.3 | 0.00 | 0.00 | 0.00 | 72 | 1019.3 |
| 20260902092024 | 80 | 119 | 6.1 | 9.6 | 0.00 | 0.00 | 0.00 | 73 | 1019.4 |
| 20260902091019 | 81 | 128 | 3.5 | 7.8 | 0.00 | 0.00 | 0.00 | 71 | 1019.2 |
| 20260902090035 | 80 | 89 | 2.6 | 6.1 | 0.00 | 0.00 | 0.00 | 73 | 1019.1 |
| 20260902085030 | 82 | 96 | 1.7 | 5.2 | 0.00 | 0.00 | 0.00 | 69 | 1019.0 |
| 20260902084025 | 80 | 95 | 0.9 | 3.5 | 0.00 | 0.00 | 0.00 | 71 | 1018.7 |
| 20260902083021 | 80 | 98 | 1.7 | 3.5 | 0.00 | 0.00 | 0.00 | 71 | 1018.6 |
| 20260902082036 | 81 | 119 | 1.7 | 2.6 | 0.00 | 0.00 | 0.00 | 68 | 1018.6 |
| 20260902081031 | 79 | 111 | 0.9 | 2.6 | 0.00 | 0.00 | 0.00 | 70 | 1018.5 |
| 20260902080047 | 79 | 111 | 0.9 | 1.7 | 0.00 | 0.00 | 0.00 | 71 | 1018.4 |
| 20260902075041 | 79 | 97 | 1.7 | 2.6 | 0.00 | 0.00 | 0.00 | 71 | 1018.4 |
| 20260902074017 | 79 | 92 | 0.0 | 1.7 | 0.00 | 0.00 | 0.00 | 70 | 1018.3 |
| 20260902073032 | 80 | 100 | 0.9 | 1.7 | 0.00 | 0.00 | 0.00 | 68 | 1018.4 |
| 20260902072028 | 79 | 0.0 | 0.0 | 0.00 | 0.00 | 0.00 | 71 | 1018.1 | |
| 20260902071024 | 78 | 0.0 | 0.0 | 0.00 | 0.00 | 0.00 | 74 | 1018.0 | |
| 20260902070018 | 76 | 0.0 | 0.0 | 0.00 | 0.00 | 0.00 | 77 | 1018.0 | |
| 20260902065033 | 75 | 86 | 0.0 | 0.9 | 0.00 | 0.00 | 0.00 | 78 | 1017.8 |
| 20260902064028 | 74 | 75 | 0.0 | 0.9 | 0.00 | 0.00 | 0.00 | 80 | 1017.8 |
| 20260902063023 | 74 | 69 | 0.0 | 0.9 | 0.00 | 0.00 | 0.00 | 80 | 1017.7 |
| 20260902062018 | 74 | 32 | 0.0 | 0.9 | 0.00 | 0.00 | 0.00 | 79 | 1017.5 |
| 20260902061115 | 73 | 351 | 0.0 | 1.7 | 0.00 | 0.00 | 0.00 | 80 | 1017.5 |
| 20260902060028 | 73 | 317 | 1.7 | 3.5 | 0.00 | 0.00 | 0.00 | 80 | 1017.4 |
| 20260902055024 | 73 | 285 | 0.9 | 2.6 | 0.00 | 0.00 | 0.00 | 81 | 1017.4 |
| 20260902054019 | 73 | 280 | 0.9 | 2.6 | 0.00 | 0.00 | 0.00 | 81 | 1017.2 |
| 20260902053035 | 73 | 293 | 0.9 | 2.6 | 0.00 | 0.00 | 0.00 | 81 | 1017.1 |
| 20260902052029 | 73 | 293 | 1.7 | 6.1 | 0.00 | 0.00 | 0.00 | 81 | 1017.0 |
| 20260902051024 | 73 | 301 | 0.9 | 2.6 | 0.00 | 0.00 | 0.00 | 81 | 1017.1 |
| 20260902050020 | 73 | 274 | 1.7 | 3.5 | 0.00 | 0.00 | 0.00 | 81 | 1017.0 |
| 20260902045055 | 73 | 303 | 0.9 | 1.7 | 0.00 | 0.00 | 0.00 | 82 | 1017.1 |
| 20260902044030 | 74 | 319 | 2.6 | 3.5 | 0.00 | 0.00 | 0.00 | 81 | 1017.0 |
| 20260902043045 | 74 | 308 | 1.7 | 3.5 | 0.00 | 0.00 | 0.00 | 81 | 1016.8 |
| 20260902042020 | 74 | 316 | 1.7 | 3.5 | 0.00 | 0.00 | 0.00 | 81 | 1016.8 |
| 20260902041015 | 74 | 325 | 1.7 | 2.6 | 0.00 | 0.00 | 0.00 | 81 | 1017.1 |
| 20260902040052 | 74 | 316 | 0.0 | 0.9 | 0.00 | 0.00 | 0.00 | 81 | 1017.1 |
| 20260902035026 | 74 | 314 | 0.0 | 0.9 | 0.00 | 0.00 | 0.00 | 81 | 1017.2 |
| 20260902034021 | 74 | 2 | 0.0 | 1.7 | 0.00 | 0.00 | 0.00 | 81 | 1017.2 |
| 20260902033017 | 74 | 321 | 0.9 | 2.6 | 0.00 | 0.00 | 0.00 | 80 | 1017.3 |
| 20260902032032 | 74 | 296 | 1.7 | 3.5 | 0.00 | 0.00 | 0.00 | 80 | 1017.2 |
| 20260902031028 | 74 | 313 | 1.7 | 2.6 | 0.00 | 0.00 | 0.00 | 80 | 1017.3 |
| 20260902030023 | 74 | 302 | 1.7 | 2.6 | 0.00 | 0.00 | 0.00 | 81 | 1017.2 |
| 20260902025018 | 74 | 323 | 0.0 | 2.6 | 0.00 | 0.00 | 0.00 | 82 | 1017.2 |
| 20260902024034 | 74 | 329 | 0.0 | 1.7 | 0.00 | 0.00 | 0.00 | 83 | 1017.3 |
| 20260902023029 | 74 | 335 | 0.0 | 1.7 | 0.00 | 0.00 | 0.00 | 84 | 1017.2 |
| 20260902022024 | 74 | 349 | 0.9 | 1.7 | 0.00 | 0.00 | 0.00 | 84 | 1017.3 |
| 20260902021019 | 74 | 0.0 | 0.0 | 0.00 | 0.00 | 0.00 | 85 | 1017.2 | |
| 20260902020054 | 74 | 0.0 | 0.0 | 0.00 | 0.00 | 0.00 | 84 | 1017.3 | |
| 20260902015050 | 75 | 0.0 | 0.0 | 0.00 | 0.00 | 0.00 | 84 | 1017.4 | |
| 20260902014026 | 75 | 335 | 0.0 | 0.9 | 0.00 | 0.00 | 0.00 | 84 | 1017.4 |
| 20260902013020 | 75 | 303 | 0.9 | 1.7 | 0.00 | 0.00 | 0.00 | 84 | 1017.6 |
| 20260902012016 | 75 | 300 | 0.9 | 0.9 | 0.00 | 0.00 | 0.00 | 85 | 1017.5 |
| 20260902011051 | 75 | 301 | 1.7 | 2.6 | 0.00 | 0.00 | 0.00 | 86 | 1017.6 |
| 20260902010026 | 75 | 307 | 0.9 | 2.6 | 0.00 | 0.00 | 0.00 | 86 | 1017.6 |
| 20260902005021 | 75 | 324 | 0.0 | 0.9 | 0.00 | 0.00 | 0.00 | 87 | 1017.6 |
| 20260902004016 | 75 | 319 | 0.9 | 1.7 | 0.00 | 0.00 | 0.00 | 87 | 1017.7 |
| 20260902003031 | 75 | 318 | 0.9 | 1.7 | 0.00 | 0.00 | 0.00 | 87 | 1017.8 |
| 20260902002107 | 76 | 0.0 | 0.0 | 0.00 | 0.00 | 0.00 | 87 | 1017.8 | |
| 20260902001022 | 76 | 334 | 0.0 | 0.9 | 0.00 | 0.00 | 0.00 | 87 | 1017.8 |
| 20260902000017 | 76 | 0.0 | 0.0 | 0.00 | 0.00 | 0.00 | 87 | 1017.8 | |
| 20260901235033 | 75 | 0 | 0.9 | 0.9 | 0.00 | 0.00 | 0.00 | 87 | 1017.7 |
| 20260901234028 | 75 | 356 | 0.0 | 0.9 | 0.00 | 0.00 | 0.00 | 87 | 1017.7 |
| 20260901233023 | 75 | 353 | 0.9 | 1.7 | 0.00 | 0.00 | 0.00 | 87 | 1017.7 |
| 20260901232019 | 0 | 0.0 | 0.0 | 0.00 | 0.00 | 0.00 | 1017.6 | ||
| 20260901231034 | 0 | 0.0 | 0.0 | 0.00 | 0.00 | 0.00 | 1017.7 | ||
| 20260901230029 | 76 | 354 | 0.0 | 0.9 | 0.00 | 0.00 | 0.00 | 88 | 1017.5 |
| 20260901225044 | 76 | 359 | 0.0 | 0.9 | 0.00 | 0.00 | 0.00 | 88 | 1017.7 |
| 20260901224019 | 76 | 350 | 0.9 | 1.7 | 0.00 | 0.00 | 0.00 | 87 | 1017.7 |
| 20260901223035 | 76 | 344 | 0.9 | 2.6 | 0.00 | 0.00 | 0.00 | 87 | 1017.7 |
| 20260901222031 | 76 | 352 | 0.9 | 0.9 | 0.00 | 0.00 | 0.00 | 87 | 1017.7 |
| 20260901221026 | 76 | 348 | 0.9 | 0.9 | 0.00 | 0.00 | 0.00 | 87 | 1017.7 |
| 20260901220022 | 77 | 355 | 0.0 | 0.9 | 0.00 | 0.00 | 0.00 | 86 | 1017.7 |
| 20260901215017 | 77 | 340 | 0.9 | 1.7 | 0.00 | 0.00 | 0.00 | 86 | 1017.6 |
| 20260901214032 | 77 | 348 | 0.0 | 0.9 | 0.00 | 0.00 | 0.00 | 86 | 1017.7 |
| 20260901213027 | 77 | 0.0 | 0.0 | 0.00 | 0.00 | 0.00 | 87 | 1017.7 | |
| 20260901212043 | 77 | 1 | 0.0 | 0.9 | 0.00 | 0.00 | 0.00 | 87 | 1017.6 |
| 20260901211017 | 77 | 29 | 0.0 | 0.9 | 0.00 | 0.00 | 0.00 | 86 | 1017.6 |
| 20260901210113 | 77 | 32 | 0.0 | 0.9 | 0.00 | 0.00 | 0.00 | 86 | 1017.6 |
| 20260901205028 | 77 | 0.0 | 0.0 | 0.00 | 0.00 | 0.00 | 86 | 1017.5 | |
| 20260901204024 | 77 | 0.0 | 0.0 | 0.00 | 0.00 | 0.00 | 86 | 1017.5 | |
| 20260901203019 | 77 | 0.0 | 0.0 | 0.00 | 0.00 | 0.00 | 85 | 1017.5 | |
| 20260901202035 | 77 | 0.0 | 0.0 | 0.00 | 0.00 | 0.00 | 85 | 1017.2 | |
| 20260901201030 | 78 | 49 | 0.0 | 0.9 | 0.00 | 0.00 | 0.00 | 85 | 1017.1 |
| 20260901200025 | 78 | 49 | 0.0 | 0.9 | 0.00 | 0.00 | 0.00 | 85 | 1017.0 |
| 20260901195101 | 78 | 0.0 | 0.0 | 0.00 | 0.00 | 0.00 | 85 | 1017.0 | |
| 20260901194036 | 78 | 0.0 | 0.0 | 0.00 | 0.00 | 0.00 | 84 | 1016.9 | |
| 20260901193031 | 78 | 0.0 | 0.0 | 0.00 | 0.00 | 0.00 | 84 | 1016.6 |